Location: Bovenkerk
(52.2915°N, 4.8336°E)
Time: 07:52:30
(UTC+00:00)

Cosmos 1864 Rocket - Pass Details

Date: 09 April 2020
Orbit: 951 x 997 km, 82.9° (Epoch: 02 June)

Event Time Altitude Azimuth Distance (km) Brightness Sun altitude
Rises 23:39:08 0° 348° (NNW) 3,723 8.7 -29.7°
Reaches altitude 10° 23:41:40 10° 348° (NNW) 2,774 7.8 -29.7°
Maximum altitude 23:48:02 78° 264° (W) 1,024 4.4 -29.7°
Enters shadow 23:48:03 78° 262° (W) 1,024 4.4 -29.7°
